Location: Caltech
(34.1382°N, 118.1253°W)
Time: 06:53:28
(UTC-07:00)

Cosmos 1939 Rocket - Visible Passes

Search period start: 28 March 2017 00:00
Search period end: 07 April 2017 00:00
Orbit: 535 x 585 km, 97.5° (Epoch: 26 March)

Date Brightness Start Highest point End Pass type
(mag) Time Alt. Az. Time Alt. Az. Time Alt. Az.
28 Mar 4.5 20:18:51 19° ENE 20:18:51 19° ENE 20:21:38 10° NNE visible
28 Mar 5.2 21:54:46 23° WNW 21:54:46 23° WNW 21:57:02 10° NW visible
29 Mar 4.5 20:17:33 18° ENE 20:17:34 18° ENE 20:20:24 10° NNE visible
29 Mar 5.1 21:53:28 25° WNW 21:53:28 25° WNW 21:55:53 10° NW visible
30 Mar 4.5 20:16:16 17° ENE 20:16:24 18° ENE 20:19:11 10° NNE visible
30 Mar 5.0 21:52:11 26° WNW 21:52:11 26° WNW 21:54:44 10° NW visible
31 Mar 4.5 20:14:58 17° ENE 20:15:14 17° ENE 20:17:56 10° NNE visible
31 Mar 4.9 21:50:53 27° WNW 21:50:53 27° WNW 21:53:36 10° NW visible
01 Apr 4.6 20:13:41 16° ENE 20:14:04 17° ENE 20:16:43 10° NNE visible
01 Apr 4.8 21:49:36 29° WNW 21:49:36 29° WNW 21:52:27 10° NNW visible
02 Apr 4.6 20:12:23 16° ENE 20:12:54 16° ENE 20:15:28 10° NNE visible
02 Apr 4.7 21:48:18 30° WNW 21:48:18 30° WNW 21:51:18 10° NNW visible
03 Apr 4.6 20:11:06 15° E 20:11:44 16° ENE 20:14:13 10° NNE visible
03 Apr 4.6 21:47:01 32° WNW 21:47:01 32° WNW 21:50:08 10° NNW visible
04 Apr 4.7 20:09:48 15° E 20:10:34 15° ENE 20:12:59 10° NNE visible
04 Apr 4.5 21:45:43 34° W 21:45:43 34° W 21:48:59 10° NNW visible
05 Apr 4.7 20:08:31 14° E 20:09:24 15° ENE 20:11:43 10° NE visible
05 Apr 4.4 21:44:26 35° W 21:44:26 35° W 21:47:50 10° NNW visible
06 Apr 4.7 20:07:14 13° E 20:08:14 14° ENE 20:10:27 10° NE visible
06 Apr 4.3 21:43:09 37° W 21:43:09 37° W 21:46:40 10° NNW visible
